period_start,C,m1,H,J0,J1,J2,J3,J4,J5,JA,JB,JC,JD,JJ,JK,JN,#
2018-05-06 00:00:26,0.05,1.27,0.00,25.16,27.87,30.72,13.88,47.21,1022.48,2023.09,2960.97,2742.43,3105.09,600.36,595.51,16.78,0000 0000 0000 0000 000000
2018-05-06 00:05:27,0.03,1.27,0.00,25.19,27.87,30.71,13.92,47.20,1022.48,2023.06,2960.13,2741.99,3104.48,600.17,595.21,16.83,0000 0000 0000 0000 000000
2018-05-06 00:10:29,0.04,1.28,0.00,25.18,27.87,30.71,13.84,47.13,1022.48,2023.04,2959.38,2741.39,3103.92,600.11,595.28,16.88,0000 0000 0000 0000 000000
2018-05-06 00:15:30,0.03,1.28,0.00,25.20,27.89,30.72,13.87,47.10,1022.48,2023.02,2958.54,2740.97,3103.08,599.95,595.24,16.93,0000 0000 0000 0000 000000
2018-05-06 00:20:32,0.05,1.28,0.00,25.21,27.90,30.72,13.80,47.14,1022.49,2023.04,2957.92,2740.21,3102.37,599.75,594.75,16.98,0000 0000 0000 0000 000000
2018-05-06 00:25:33,0.01,1.28,0.00,25.21,27.90,30.73,13.85,47.17,1022.49,2023.02,2957.08,2739.99,3101.98,600.08,594.97,17.03,0000 0000 0000 0000 000000
2018-05-06 00:30:34,0.06,1.29,0.00,25.24,27.90,30.74,13.82,47.15,1022.48,2023.03,2956.31,2739.36,3101.15,599.70,594.63,17.08,0000 0000 0000 0000 000000
2018-05-06 00:35:35,0.01,1.29,0.00,25.26,27.92,30.75,13.82,47.18,1022.48,2023.01,2955.84,2738.99,3100.62,599.45,594.50,17.13,0000 0000 0000 0000 000000
2018-05-06 00:40:37,0.04,1.29,0.00,25.26,27.92,30.75,13.93,47.23,1022.48,2023.00,2955.07,2738.36,3099.99,599.60,594.48,17.18,0000 0000 0000 0000 000000
2018-05-06 00:45:38,0.03,1.29,0.00,25.26,27.93,30.76,13.95,47.13,1022.48,2023.00,2954.28,2737.94,3099.28,600.55,595.44,17.23,0000 0000 0000 0000 000000
2018-05-06 00:50:39,0.03,1.29,0.00,25.31,27.95,30.76,13.83,47.06,1022.48,2023.00,2953.69,2737.23,3098.82,600.00,594.89,17.28,0000 0000 0000 0000 000000
2018-05-06 00:55:40,0.03,1.30,0.00,25.32,27.95,30.78,13.84,47.08,1022.49,2023.00,2952.93,2736.98,3098.02,599.87,594.56,17.33,0000 0000 0000 0000 000000
2018-05-06 01:00:41,0.06,1.30,0.00,25.32,27.96,30.79,13.89,47.02,1022.48,2023.00,2952.06,2736.24,3097.29,599.92,594.73,17.38,0000 0000 0000 0000 000000
2018-05-06 01:05:43,0.03,1.30,0.00,25.35,27.97,30.79,13.82,47.05,1022.48,2023.00,2951.16,2735.98,3096.77,599.43,594.38,17.43,0000 0000 0000 0000 000000
2018-05-06 01:10:44,0.05,1.30,0.00,25.34,27.98,30.81,13.84,47.02,1022.48,2023.00,2950.50,2735.28,3096.02,600.09,594.80,17.48,0000 0000 0000 0000 000000
2018-05-06 01:15:45,0.02,1.30,0.00,25.36,28.00,30.82,13.84,47.05,1022.48,2022.99,2949.91,2734.96,3095.28,599.92,594.69,17.53,0000 0000 0000 0000 000000
2018-05-06 01:20:47,0.05,1.31,0.00,25.40,28.00,30.84,13.84,47.01,1022.49,2022.99,2949.08,2734.19,3094.80,599.90,594.56,17.58,0000 0000 0000 0000 000000
2018-05-06 01:25:48,0.03,1.31,0.00,25.41,28.02,30.84,13.94,47.10,1022.49,2022.99,2948.19,2733.88,3094.01,600.39,594.98,17.63,0000 0000 0000 0000 000000
2018-05-06 01:30:49,0.05,1.31,0.00,25.44,28.02,30.86,13.87,47.15,1022.49,2022.99,2947.44,2733.10,3093.17,599.85,594.42,17.68,0000 0000 0000 0000 000000
2018-05-06 01:35:51,0.04,1.31,0.00,25.46,28.05,30.87,13.87,47.11,1022.48,2022.97,2946.56,2732.74,3092.56,600.09,594.59,17.73,0000 0000 0000 0000 000000
2018-05-06 01:40:52,0.03,1.31,0.00,25.48,28.05,30.88,13.84,47.17,1022.48,2022.97,2945.70,2732.02,3091.86,600.07,594.57,17.78,0000 0000 0000 0000 000000
2018-05-06 01:45:54,0.04,1.32,0.00,25.49,28.07,30.89,13.85,47.18,1022.48,2022.91,2944.99,2731.47,3091.05,600.01,594.50,17.83,0000 0000 0000 0000 000000
2018-05-06 01:50:55,0.03,1.32,0.00,25.52,28.08,30.91,13.84,47.03,1022.49,2022.79,2944.00,2730.91,3090.22,600.28,594.69,17.88,0000 0000 0000 0000 000000
2018-05-06 01:55:56,0.02,1.32,0.00,25.51,28.10,30.92,13.87,47.08,1022.48,2022.54,2943.17,2730.13,3089.48,600.47,594.95,17.93,0000 0000 0000 0000 000000
2018-05-06 02:00:58,0.02,1.32,0.00,25.53,28.11,30.92,13.77,47.12,1022.48,2022.20,2942.37,2729.73,3088.85,599.61,593.96,17.98,0000 0000 0000 0000 000000
2018-05-06 02:05:59,0.03,1.32,0.00,25.58,28.12,30.94,13.85,47.15,1022.48,2022.10,2941.78,2729.05,3088.07,600.12,594.41,18.03,0000 0000 0000 0000 000000
2018-05-06 02:11:00,0.05,1.32,0.00,25.61,28.14,30.96,13.82,47.12,1022.48,2022.06,2940.93,2728.52,3087.19,600.06,594.28,18.08,0000 0000 0000 0000 000000
2018-05-06 02:16:01,0.03,1.33,0.00,25.61,28.15,30.98,13.82,47.13,1022.48,2022.03,2940.13,2728.01,3086.66,600.05,594.41,18.13,0000 0000 0000 0000 000000
2018-05-06 02:21:03,0.05,1.33,0.00,25.63,28.17,30.99,13.83,47.00,1022.48,2022.01,2939.38,2727.35,3085.95,599.81,594.00,18.18,0000 0000 0000 0000 000000
2018-05-06 02:26:04,0.04,1.33,0.00,25.65,28.17,31.01,13.87,47.18,1022.47,2022.00,2938.48,2726.88,3085.09,600.47,594.50,18.23,0000 0000 0000 0000 000000
2018-05-06 02:31:05,0.05,1.33,0.00,25.67,28.20,31.03,13.85,47.17,1022.48,2022.00,2937.64,2726.09,3084.39,599.63,593.76,18.28,0000 0000 0000 0000 000000
2018-05-06 02:36:07,0.05,1.34,0.00,25.69,28.21,31.04,13.90,47.21,1022.48,2022.00,2936.77,2725.57,3083.56,600.10,594.20,18.33,0000 0000 0000 0000 000000
2018-05-06 02:41:08,0.03,1.34,0.00,25.73,28.22,31.05,13.81,47.14,1022.48,2022.00,2935.96,2725.00,3082.82,599.69,593.55,18.38,0000 0000 0000 0000 000000
2018-05-06 02:46:09,0.05,1.34,0.00,25.73,28.25,31.07,13.86,47.12,1022.48,2021.99,2935.09,2724.34,3082.06,599.85,593.89,18.43,0000 0000 0000 0000 000000
2018-05-06 02:51:11,0.04,1.34,0.00,25.73,28.26,31.09,13.84,47.17,1022.48,2021.98,2934.24,2723.84,3081.30,599.90,593.92,18.48,0000 0000 0000 0000 000000
2018-05-06 02:56:12,0.05,1.35,0.00,25.77,28.27,31.12,13.79,46.98,1022.48,2021.98,2933.53,2723.06,3080.67,599.91,593.83,18.53,0000 0000 0000 0000 000000
2018-05-06 03:01:14,0.05,1.35,0.00,25.79,28.30,31.13,13.79,47.01,1022.47,2021.98,2932.58,2722.56,3079.86,599.94,593.86,18.58,0000 0000 0000 0000 000000
2018-05-06 03:06:15,0.02,1.35,0.00,25.81,28.31,31.14,13.78,47.01,1022.47,2021.86,2931.56,2721.97,3079.02,600.20,593.93,18.63,0000 0000 0000 0000 000000
2018-05-06 03:11:16,0.04,1.35,0.00,25.84,28.33,31.17,13.82,47.23,1022.48,2021.73,2930.87,2721.15,3078.17,599.64,593.48,18.68,0000 0000 0000 0000 000000
2018-05-06 03:16:18,0.00,1.35,0.00,25.86,28.35,31.17,13.85,47.17,1022.47,2021.23,2929.92,2720.62,3077.43,600.04,593.77,18.73,0000 0000 0000 0000 000000
2018-05-06 03:21:19,0.02,1.35,0.00,25.87,28.37,31.19,13.81,47.13,1022.48,2021.06,2929.03,2720.00,3076.72,599.75,593.46,18.78,0000 0000 0000 0000 000000
2018-05-06 03:26:21,0.05,1.36,0.00,25.89,28.38,31.22,13.75,47.00,1022.47,2021.02,2928.13,2719.21,3075.86,599.41,593.08,18.83,0000 0000 0000 0000 000000
2018-05-06 03:31:22,0.06,1.36,0.00,25.94,28.40,31.25,13.81,47.15,1022.47,2021.01,2927.13,2718.59,3074.94,599.33,592.93,18.88,0000 0000 0000 0000 000000
2018-05-06 03:36:23,0.04,1.36,0.00,25.96,28.42,31.25,13.81,47.16,1022.48,2021.00,2926.06,2717.96,3074.05,600.22,593.61,18.93,0000 0000 0000 0000 000000
2018-05-06 03:41:25,0.06,1.37,0.00,25.94,28.45,31.28,13.81,47.17,1022.48,2021.00,2925.19,2717.12,3073.26,599.86,593.47,18.99,0000 0000 0000 0000 000000
2018-05-06 03:46:26,0.06,1.37,0.00,25.98,28.46,31.30,13.80,47.08,1022.48,2021.00,2924.19,2716.43,3072.33,600.28,593.80,19.04,0000 0000 0000 0000 000000
2018-05-06 03:51:27,0.03,1.37,0.00,26.00,28.48,31.32,13.81,47.18,1022.49,2020.98,2923.29,2715.92,3071.54,599.92,593.39,19.09,0000 0000 0000 0000 000000
2018-05-06 03:56:29,0.04,1.37,0.00,26.01,28.50,31.34,13.82,47.07,1022.49,2020.96,2922.31,2715.13,3070.95,600.25,593.67,19.14,0000 0000 0000 0000 000000
2018-05-06 04:01:30,0.05,1.38,0.00,26.03,28.52,31.35,13.84,47.11,1022.48,2020.90,2921.41,2714.51,3070.08,600.41,593.89,19.19,0000 0000 0000 0000 000000
2018-05-06 04:06:31,0.02,1.38,0.00,26.07,28.55,31.37,13.76,47.01,1022.50,2020.72,2920.49,2713.90,3069.23,599.91,593.22,19.24,0000 0000 0000 0000 000000
2018-05-06 04:11:33,0.02,1.38,0.00,26.10,28.56,31.38,13.81,47.06,1022.51,2020.38,2919.64,2713.13,3068.38,600.39,593.61,19.29,0000 0000 0000 0000 000000
2018-05-06 04:16:34,0.03,1.38,0.00,26.11,28.59,31.40,13.83,47.12,1022.50,2020.23,2918.73,2712.70,3067.68,600.29,593.50,19.34,0000 0000 0000 0000 000000
2018-05-06 04:21:35,0.02,1.38,0.00,26.13,28.61,31.43,13.76,47.02,1022.54,2020.08,2917.84,2712.01,3066.90,599.74,592.85,19.39,0000 0000 0000 0000 000000
2018-05-06 04:26:36,0.06,1.38,0.00,26.15,28.62,31.45,13.80,46.98,1022.58,2020.01,2916.79,2711.25,3065.96,600.31,593.53,19.44,0000 0000 0000 0000 000000
2018-05-06 04:31:38,0.05,1.39,0.00,26.17,28.65,31.46,13.78,47.02,1022.57,2020.00,2915.80,2710.59,3065.08,599.89,592.91,19.49,0000 0000 0000 0000 000000
2018-05-06 04:36:39,0.05,1.39,0.00,26.18,28.67,31.49,13.81,46.97,1022.80,2020.00,2914.76,2709.92,3064.27,600.31,593.52,19.54,0000 0000 0000 0000 000000
2018-05-06 04:41:40,0.06,1.39,0.00,26.20,28.69,31.51,13.74,46.96,1022.91,2020.00,2913.70,2709.10,3063.38,599.95,593.26,19.59,0000 0000 0000 0000 000000
2018-05-06 04:46:41,0.06,1.40,0.00,26.21,28.71,31.53,13.86,47.17,1022.95,2020.00,2912.80,2708.46,3062.47,600.39,593.61,19.64,0000 0000 0000 0000 000000
2018-05-06 04:51:43,0.04,1.40,0.00,26.22,28.73,31.54,13.81,47.09,1022.94,2019.99,2911.85,2707.86,3061.69,600.03,593.38,19.69,0000 0000 0000 0000 000000
2018-05-06 04:56:44,0.06,1.40,0.00,26.26,28.75,31.57,13.71,47.07,1022.91,2019.98,2910.79,2707.06,3060.81,599.60,592.73,19.74,0000 0000 0000 0000 000000
2018-05-06 05:01:45,0.05,1.40,0.00,26.29,28.77,31.59,13.85,47.06,1022.92,2019.94,2909.84,2706.38,3059.93,600.25,593.51,19.79,0000 0000 0000 0000 000000
2018-05-06 05:06:47,0.03,1.41,0.00,26.31,28.80,31.62,13.85,47.02,1022.96,2019.92,2908.95,2705.86,3059.08,600.51,593.57,19.84,0000 0000 0000 0000 000000
2018-05-06 05:11:48,0.06,1.41,0.00,26.33,28.82,31.63,13.75,47.07,1022.97,2019.91,2907.97,2705.06,3058.21,599.97,592.98,19.89,0000 0000 0000 0000 000000
2018-05-06 05:16:50,0.01,1.41,0.00,26.38,28.84,31.64,13.72,47.00,1022.97,2019.59,2907.09,2704.42,3057.44,599.81,592.79,19.94,0000 0000 0000 0000 000000
2018-05-06 05:21:51,0.04,1.41,0.00,26.41,28.86,31.66,13.81,47.13,1022.97,2019.19,2906.03,2703.74,3056.51,599.55,592.58,19.99,0000 0000 0000 0000 000000
2018-05-06 05:26:53,0.03,1.41,0.00,26.41,28.88,31.69,13.83,47.10,1022.98,2019.05,2905.03,2703.01,3055.62,600.23,593.12,20.04,0000 0000 0000 0000 000000
2018-05-06 05:31:54,0.06,1.42,0.00,26.43,28.91,31.70,13.78,47.08,1022.96,2019.01,2904.11,2702.23,3054.70,599.40,592.28,20.09,0000 0000 0000 0000 000000
2018-05-06 05:36:55,0.04,1.42,0.00,26.46,28.93,31.72,13.78,47.10,1022.96,2019.00,2903.08,2701.69,3053.97,599.86,592.90,20.14,0000 0000 0000 0000 000000
2018-05-06 05:41:56,0.04,1.42,0.00,26.48,28.95,31.75,13.75,47.08,1022.96,2019.00,2902.36,2701.02,3053.17,599.56,592.32,20.19,0000 0000 0000 0000 000000
2018-05-06 05:46:57,0.05,1.42,0.00,26.46,28.98,31.78,13.75,47.18,1022.96,2018.99,2901.57,2700.42,3052.51,599.81,592.79,20.24,0000 0000 0000 0000 000000
2018-05-06 05:51:58,0.01,1.43,0.00,26.49,29.00,31.80,13.83,47.22,1022.96,2018.99,2900.85,2699.99,3051.92,600.11,592.84,20.29,0000 0000 0000 0000 000000
2018-05-06 05:57:00,0.06,1.43,0.00,26.53,29.02,31.82,13.81,47.02,1022.96,2018.99,2899.94,2699.22,3051.08,600.47,593.11,20.34,0000 0000 0000 0000 000000
2018-05-06 06:02:01,0.05,1.43,0.00,26.55,29.04,31.83,13.78,47.08,1022.97,2018.95,2898.98,2698.63,3050.22,600.25,592.90,20.39,0000 0000 0000 0000 000000
2018-05-06 06:07:02,0.03,1.43,0.00,26.56,29.06,31.86,13.78,47.16,1022.96,2018.80,2898.06,2697.98,3049.39,599.67,592.37,20.44,0000 0000 0000 0000 000000
2018-05-06 06:12:03,0.00,1.43,0.00,26.58,29.09,31.87,13.86,47.20,1022.96,2018.36,2897.25,2697.26,3048.75,600.37,592.96,20.49,0000 0000 0000 0000 000000
2018-05-06 06:17:05,0.02,1.43,0.00,26.60,29.11,31.91,13.74,47.05,1022.96,2018.27,2896.63,2696.96,3048.02,599.67,592.06,20.54,0000 0000 0000 0000 000000
2018-05-06 06:22:06,0.03,1.44,0.00,26.61,29.13,31.92,13.81,47.17,1022.96,2018.05,2896.00,2696.17,3047.43,600.19,592.73,20.59,0000 0000 0000 0000 000000
2018-05-06 06:27:07,0.05,1.44,0.00,26.63,29.15,31.95,13.74,47.11,1022.96,2018.01,2895.08,2695.57,3046.53,600.02,592.53,20.64,0000 0000 0000 0000 000000
2018-05-06 06:32:09,0.03,1.44,0.00,26.67,29.17,31.97,13.82,47.18,1022.96,2018.00,2894.21,2695.01,3045.97,600.18,592.64,20.69,0000 0000 0000 0000 000000
2018-05-06 06:37:10,0.05,1.44,0.00,26.71,29.20,31.99,13.77,47.08,1022.96,2018.00,2893.61,2694.41,3045.19,599.93,592.27,20.74,0000 0000 0000 0000 000000
2018-05-06 06:42:12,0.05,1.45,0.00,26.73,29.22,32.01,13.81,47.12,1022.96,2017.99,2892.53,2693.79,3044.28,600.23,592.52,20.79,0000 0000 0000 0000 000000
2018-05-06 06:47:13,0.04,1.45,0.00,26.75,29.24,32.03,13.78,46.98,1022.96,2017.98,2891.70,2693.04,3043.61,600.01,592.24,20.84,0000 0000 0000 0000 000000
2018-05-06 06:52:15,0.05,1.45,0.00,26.78,29.26,32.05,13.73,47.19,1022.96,2017.97,2890.83,2692.39,3042.84,599.87,592.15,20.89,0000 0000 0000 0000 000000
2018-05-06 06:57:16,0.01,1.45,0.00,26.81,29.28,32.07,13.81,46.91,1022.97,2017.70,2889.95,2691.84,3042.04,600.08,592.26,20.94,0000 0000 0000 0000 000000
2018-05-06 07:02:17,0.02,1.45,0.00,26.82,29.31,32.09,13.78,47.20,1022.98,2017.33,2889.10,2691.06,3041.20,599.92,592.06,20.99,0000 0000 0000 0000 000000
2018-05-06 07:07:19,0.04,1.45,0.00,26.82,29.33,32.11,13.75,47.23,1023.06,2017.07,2888.27,2690.49,3040.51,600.02,592.19,21.04,0000 0000 0000 0000 000000
2018-05-06 07:12:20,0.02,1.46,0.00,26.83,29.35,32.13,13.83,47.17,1023.12,2017.01,2887.42,2689.98,3039.96,600.11,592.38,21.09,0000 0000 0000 0000 000000
2018-05-06 07:17:21,0.06,1.46,0.00,26.86,29.37,32.16,13.82,47.28,1023.06,2017.00,2886.74,2689.24,3039.18,600.31,592.41,21.14,0000 0000 0000 0000 000000
2018-05-06 07:22:23,0.03,1.46,0.00,26.89,29.40,32.19,13.83,47.16,1023.02,2017.00,2885.89,2688.82,3038.31,600.25,592.31,21.19,0000 0000 0000 0000 000000
2018-05-06 07:27:24,0.05,1.46,0.00,26.91,29.42,32.20,13.73,47.21,1023.19,2017.00,2885.03,2688.05,3037.59,599.74,591.91,21.24,0000 0000 0000 0000 000000
2018-05-06 07:32:25,0.04,1.47,0.00,26.94,29.44,32.23,13.81,47.14,1023.43,2017.00,2884.23,2687.61,3036.99,600.21,592.31,21.29,0000 0000 0000 0000 000000
2018-05-06 07:37:27,0.04,1.47,0.00,26.95,29.46,32.25,13.76,47.09,1023.45,2016.98,2883.39,2687.01,3036.13,599.85,592.02,21.34,0000 0000 0000 0000 000000
2018-05-06 07:42:28,0.05,1.47,0.00,26.96,29.48,32.27,13.74,47.14,1023.45,2016.93,2882.63,2686.36,3035.45,599.81,592.02,21.39,0000 0000 0000 0000 000000
2018-05-06 07:47:29,0.01,1.47,0.00,27.02,29.50,32.28,13.78,47.27,1023.45,2016.87,2881.93,2685.97,3034.90,600.06,592.06,21.44,0000 0000 0000 0000 000000
2018-05-06 07:52:30,0.02,1.47,0.00,27.06,29.52,32.30,13.78,47.02,1023.45,2016.45,2881.01,2685.20,3034.06,599.89,591.73,21.50,0000 0000 0000 0000 000000
2018-05-06 07:57:31,0.02,1.47,0.00,27.07,29.55,32.33,13.72,47.02,1023.45,2016.13,2880.11,2684.80,3033.23,599.99,591.90,21.55,0000 0000 0000 0000 000000
2018-05-06 08:02:33,0.04,1.48,0.00,27.07,29.57,32.34,13.78,47.14,1023.46,2016.04,2879.44,2684.07,3032.71,599.67,591.56,21.60,0000 0000 0000 0000 000000
2018-05-06 08:07:34,0.04,1.48,0.00,27.08,29.60,32.37,13.75,47.06,1023.48,2016.01,2878.76,2683.51,3031.94,600.08,591.89,21.65,0000 0000 0000 0000 000000
2018-05-06 08:12:35,0.03,1.48,0.00,27.13,29.61,32.40,13.77,47.17,1023.48,2016.00,2877.97,2682.99,3031.18,599.77,591.55,21.70,0000 0000 0000 0000 000000
2018-05-06 08:17:37,0.06,1.48,0.00,27.12,29.64,32.41,13.80,47.19,1023.49,2016.00,2877.12,2682.29,3030.47,600.00,591.82,21.75,0000 0000 0000 0000 000000
2018-05-06 08:22:38,0.02,1.48,0.00,27.13,29.66,32.44,13.76,47.08,1023.47,2016.00,2876.49,2681.90,3029.83,599.81,591.60,21.80,0000 0000 0000 0000 000000
2018-05-06 08:27:39,0.06,1.49,0.00,27.17,29.68,32.45,13.78,47.20,1023.67,2015.98,2875.47,2681.08,3029.02,599.81,591.71,21.85,0000 0000 0000 0000 000000
2018-05-06 08:32:41,0.05,1.49,0.00,27.18,29.70,32.48,13.76,47.21,1023.85,2015.98,2874.59,2680.63,3028.20,599.51,591.41,21.90,0000 0000 0000 0000 000000
2018-05-06 08:37:42,0.02,1.49,0.00,27.21,29.72,32.51,13.74,47.11,1023.88,2015.93,2873.84,2680.01,3027.59,600.12,592.00,21.95,0000 0000 0000 0000 000000
2018-05-06 08:42:43,0.03,1.49,0.00,27.23,29.75,32.51,13.78,47.15,1023.94,2015.72,2873.04,2679.38,3026.88,600.02,591.82,22.00,0000 0000 0000 0000 000000
2018-05-06 08:47:45,0.01,1.49,0.00,27.29,29.76,32.55,13.82,47.13,1023.94,2015.43,2872.21,2678.82,3026.07,599.84,591.69,22.05,0000 0000 0000 0000 000000
2018-05-06 08:52:46,0.04,1.50,0.00,27.29,29.78,32.56,13.75,47.02,1023.95,2015.13,2871.17,2678.02,3025.20,599.91,591.68,22.10,0000 0000 0000 0000 000000
2018-05-06 08:57:47,0.06,1.50,0.00,27.28,29.80,32.59,13.73,47.04,1023.96,2015.04,2870.07,2677.18,3024.31,599.81,591.59,22.15,0000 0000 0000 0000 000000
2018-05-06 09:02:48,0.06,1.50,0.00,27.28,29.82,32.61,13.76,47.14,1023.96,2015.00,2868.94,2676.40,3023.35,599.68,591.56,22.20,0000 0000 0000 0000 000000
2018-05-06 09:07:50,0.07,1.50,0.00,27.31,29.84,32.62,13.77,47.21,1023.98,2014.99,2867.76,2675.61,3022.36,599.80,591.51,22.25,0000 0000 0000 0000 000000
2018-05-06 09:12:51,0.06,1.51,0.00,27.31,29.86,32.65,13.74,47.14,1024.14,2014.98,2866.60,2674.80,3021.36,599.87,591.64,22.30,0000 0000 0000 0000 000000
2018-05-06 09:17:52,0.05,1.51,0.00,27.30,29.87,32.65,13.75,47.10,1024.35,2014.96,2865.38,2673.98,3020.31,599.73,591.74,22.35,0000 0000 0000 0000 000000
2018-05-06 09:22:54,0.06,1.51,0.00,27.29,29.90,32.67,13.73,47.15,1024.37,2014.91,2864.29,2673.12,3019.45,600.06,591.97,22.40,0000 0000 0000 0000 000000
2018-05-06 09:27:55,0.04,1.52,0.00,27.31,29.91,32.69,13.68,47.04,1024.42,2014.69,2863.27,2672.34,3018.53,600.13,592.16,22.45,0000 0000 0000 0000 000000
2018-05-06 09:32:56,0.02,1.52,0.00,27.32,29.92,32.72,13.77,47.06,1024.43,2014.44,2862.21,2671.71,3017.62,600.32,592.29,22.50,0000 0000 0000 0000 000000
2018-05-06 09:37:57,0.03,1.52,0.00,27.35,29.95,32.74,13.78,47.22,1024.43,2014.16,2861.14,2670.93,3016.68,599.82,591.69,22.55,0000 0000 0000 0000 000000
2018-05-06 09:42:58,0.05,1.52,0.00,27.37,29.96,32.75,13.80,47.24,1024.43,2014.05,2860.05,2670.08,3015.80,600.36,592.28,22.60,0000 0000 0000 0000 000000
2018-05-06 09:47:59,0.06,1.53,0.00,27.37,29.98,32.76,13.77,47.13,1024.44,2014.03,2859.04,2669.32,3014.91,599.89,591.92,22.65,0000 0000 0000 0000 000000
2018-05-06 09:53:00,0.07,1.53,0.00,27.35,30.00,32.78,13.70,47.12,1024.44,2014.00,2857.87,2668.47,3013.95,600.00,591.98,22.70,0000 0000 0000 0000 000000
2018-05-06 09:58:02,0.07,1.53,0.00,27.35,30.01,32.80,13.83,47.21,1024.44,2014.00,2856.62,2667.67,3012.90,600.13,592.05,22.75,0000 0000 0000 0000 000000
2018-05-06 10:03:03,0.06,1.54,0.00,27.36,30.02,32.81,13.82,47.22,1024.46,2014.00,2855.41,2666.80,3011.86,600.05,591.83,22.80,0000 0000 0000 0000 000000
2018-05-06 10:08:05,0.10,1.54,0.00,27.41,30.05,32.82,13.77,47.18,1024.64,2014.00,2853.78,2665.71,3010.65,599.59,591.58,22.85,0000 0000 0000 0000 000000
2018-05-06 10:13:06,0.07,1.54,0.00,27.39,30.05,32.84,13.85,47.16,1024.79,2013.99,2852.37,2664.77,3009.49,600.32,592.45,22.90,0000 0000 0000 0000 000000
2018-05-06 10:18:07,0.06,1.55,0.00,27.38,30.07,32.85,13.83,47.17,1024.85,2013.97,2851.15,2663.86,3008.54,600.37,592.32,22.95,0000 0000 0000 0000 000000
2018-05-06 10:23:09,0.09,1.55,0.00,27.39,30.08,32.86,13.85,47.15,1024.90,2013.96,2849.48,2662.82,3007.35,600.16,592.25,23.00,0000 0000 0000 0000 000000
2018-05-06 10:28:10,0.08,1.56,0.00,27.38,30.10,32.88,13.86,47.17,1024.91,2013.94,2847.90,2661.75,3006.12,600.13,592.35,23.05,0000 0000 0000 0000 000000
2018-05-06 10:33:11,0.09,1.56,0.00,27.41,30.10,32.89,13.80,47.19,1024.91,2013.92,2846.34,2660.67,3004.85,600.06,592.15,23.10,0000 0000 0000 0000 000000
2018-05-06 10:38:12,0.09,1.57,0.00,27.43,30.12,32.90,13.82,47.12,1024.90,2013.89,2844.62,2659.56,3003.56,600.10,592.17,23.15,0000 0000 0000 0000 000000
2018-05-06 10:43:14,0.06,1.57,0.00,27.41,30.12,32.91,13.82,47.16,1024.91,2013.76,2843.02,2658.48,3002.20,599.90,592.04,23.20,0000 0000 0000 0000 000000
2018-05-06 10:48:15,0.05,1.57,0.00,27.42,30.13,32.92,13.74,47.14,1024.92,2013.38,2841.42,2657.30,3000.90,600.07,592.27,23.25,0000 0000 0000 0000 000000
2018-05-06 10:53:16,0.08,1.58,0.00,27.39,30.15,32.93,13.74,47.11,1024.92,2013.29,2839.94,2656.30,2999.76,599.90,592.03,23.30,0000 0000 0000 0000 000000
2018-05-06 10:58:18,0.07,1.58,0.00,27.38,30.15,32.93,13.74,47.19,1024.91,2013.18,2838.53,2655.21,2998.52,599.63,591.76,23.35,0000 0000 0000 0000 000000
2018-05-06 11:03:19,0.08,1.58,0.00,27.40,30.16,32.94,13.80,47.17,1024.91,2013.03,2836.89,2654.07,2997.21,599.93,592.10,23.40,0000 0000 0000 0000 000000
2018-05-06 11:08:20,0.08,1.59,0.00,27.46,30.17,32.97,13.82,47.17,1024.92,2013.03,2835.52,2653.02,2995.98,600.51,592.50,23.45,0000 0000 0000 0000 000000
2018-05-06 11:13:22,0.09,1.59,0.00,27.41,30.17,32.96,13.75,47.26,1024.92,2013.03,2833.95,2651.94,2994.68,599.89,591.97,23.50,0000 0000 0000 0000 000000
2018-05-06 11:18:23,0.08,1.60,0.00,27.40,30.18,32.96,13.82,47.13,1024.92,2013.00,2832.51,2650.80,2993.50,600.41,592.35,23.55,0000 0000 0000 0000 000000
2018-05-06 11:23:24,0.10,1.60,0.00,27.37,30.20,32.97,13.83,47.23,1024.92,2013.00,2830.69,2649.58,2992.07,600.18,592.41,23.60,0000 0000 0000 0000 000000
2018-05-06 11:28:25,0.09,1.61,0.00,27.37,30.20,32.98,13.82,47.17,1024.93,2013.00,2829.12,2648.59,2990.76,600.12,592.34,23.65,0000 0000 0000 0000 000000
2018-05-06 11:33:27,0.09,1.61,0.00,27.39,30.20,32.96,13.83,47.25,1024.92,2013.00,2827.41,2647.36,2989.45,599.82,592.00,23.70,0000 0000 0000 0000 000000
2018-05-06 11:38:28,0.09,1.62,0.00,27.38,30.20,32.98,13.84,47.28,1024.92,2013.00,2825.72,2646.23,2988.10,600.21,592.39,23.75,0000 0000 0000 0000 000000
2018-05-06 11:43:29,0.09,1.62,0.00,27.36,30.20,32.99,13.86,47.14,1024.92,2013.00,2824.10,2645.08,2986.78,600.15,592.39,23.80,0000 0000 0000 0000 000000
2018-05-06 11:48:30,0.10,1.63,0.00,27.36,30.21,33.00,13.88,47.18,1024.92,2013.00,2822.36,2643.86,2985.36,599.99,592.15,23.85,0000 0000 0000 0000 000000
2018-05-06 11:53:31,0.12,1.63,0.00,27.36,30.22,33.00,13.83,47.25,1024.92,2013.00,2820.38,2642.62,2983.79,599.97,592.16,23.90,0000 0000 0000 0000 000000
2018-05-06 11:58:33,0.14,1.64,0.00,27.38,30.22,33.00,13.84,47.17,1024.93,2013.00,2817.80,2640.97,2981.93,600.10,592.25,23.95,0000 0000 0000 0000 000000
2018-05-06 12:03:34,0.08,1.64,0.00,27.40,30.22,33.00,13.78,47.12,1024.93,2012.97,2816.51,2639.62,2980.72,599.93,592.15,24.00,0000 0000 0000 0000 000000
2018-05-06 12:08:35,0.18,1.65,0.00,27.38,30.22,33.03,13.85,47.20,1024.93,2012.98,2813.57,2637.88,2978.42,600.48,592.52,24.05,0000 0000 0000 0000 000000
2018-05-06 12:13:36,0.12,1.66,0.00,27.38,30.22,33.01,13.77,47.13,1024.93,2012.99,2810.91,2636.18,2976.47,599.96,592.14,24.10,0000 0000 0000 0000 000000
2018-05-06 12:18:38,0.13,1.66,0.00,27.36,30.22,33.02,13.82,47.13,1024.94,2012.98,2808.92,2634.64,2974.66,600.29,592.49,24.15,0000 0000 0000 0000 000000
2018-05-06 12:23:39,0.13,1.67,0.00,27.34,30.23,33.01,13.87,47.19,1024.93,2012.98,2806.60,2633.02,2972.84,600.17,592.38,24.20,0000 0000 0000 0000 000000
2018-05-06 12:28:40,0.13,1.68,0.00,27.37,30.23,33.00,13.80,47.05,1024.93,2012.98,2804.27,2631.47,2970.93,600.15,592.29,24.25,0000 0000 0000 0000 000000
2018-05-06 12:33:42,0.11,1.68,0.00,27.38,30.24,33.01,13.80,47.10,1024.93,2012.98,2802.25,2630.00,2969.39,599.87,592.03,24.30,0000 0000 0000 0000 000000
2018-05-06 12:38:43,0.08,1.69,0.00,27.32,30.24,33.02,13.83,47.13,1024.94,2012.91,2801.17,2628.68,2968.21,599.99,592.33,24.35,0000 0000 0000 0000 000000
2018-05-06 12:43:44,0.12,1.69,0.00,27.30,30.24,33.01,13.79,47.15,1024.97,2012.70,2798.78,2626.95,2966.21,600.09,592.43,24.40,0000 0000 0000 0000 000000
2018-05-06 12:48:46,0.09,1.70,0.00,27.26,30.24,33.00,13.87,47.17,1025.01,2012.45,2796.44,2625.28,2964.31,599.85,592.29,24.45,0000 0000 0000 0000 000000
2018-05-06 12:53:47,0.18,1.71,0.00,27.26,30.23,33.00,13.84,47.23,1024.99,2012.38,2793.65,2623.54,2962.13,599.96,592.34,24.50,0000 0000 0000 0000 000000